User: anonymous
Location: Oshawa
(43.9000°N, 78.8670°W)
Time: 03:20:03
(UTC-04:00)
Language:

Iridium 54 - Orbit

View from above orbital plane
View from above orbital plane
View from above satellite
View from above satellite

Ground track
Ground track

The orbit data is extracted from the following two-line orbital elements,

1 25171U 98010C   14108.44211397  .00000286  00000-0  95080-4 0  7247
2 25171 086.3937 113.4928 0002276 102.1489 257.9962 14.34214368846277
Epoch (UTC): 18 April 2014 10:36:38
Eccentricity: 0.0002276
inclination: 86.3937°
perigee height: 776 km
apogee height: 779 km
right ascension of ascending node: 113.4928°
argument of perigee: 102.1489°
revolutions per day: 14.34214368
mean anomaly at epoch: 257.9962°
orbit number at epoch: 84627

The dashed part of the orbit path shows where the satellite is in the earth's shadow,  

DLR